Location: Isles
(48.9125°N, 2.8272°E)
Time: 12:30:18
(UTC+00:00)

NOAA 6 - Pass Details

Date: 03 February 2023
Orbit: 770 x 786 km, 98.7° (Epoch: 30 March)

Event Time Altitude Azimuth Distance (km) Brightness Sun altitude
Rises 17:45:44 0° 171° (S) 3,249 7.3 -9.6°
Reaches altitude 10° 17:48:03 10° 174° (S) 2,328 6.6 -10.0°
Maximum altitude 17:53:10 68° 257° (WSW) 843 4.5 -10.8°
Drops below altitude 10° 17:58:21 10° 341° (NNW) 2,355 6.6 -11.6°
Sets 18:00:43 0° 344° (NNW) 3,290 7.3 -12.0°
